Location: Marcé
(47.5801°N, 0.3280°W)
Time: 03:10:22
(UTC+01:00)

deb Explorer IX - Pass Details

Date: 09 December 2021
Orbit: 544 x 1082 km, 38.8° (Epoch: 19 January)

Event Time Altitude Azimuth Distance (km) Brightness Sun altitude
Rises 12:30:35 0° 260° (W) 3,059 ? 19.4°
Reaches altitude 10° 12:33:31 10° 246° (WSW) 2,048 ? 19.4°
Maximum altitude 12:37:06 22° 196° (SSW) 1,331 ? 19.5°
Drops below altitude 10° 12:40:25 10° 145° (SE) 1,871 ? 19.5°
Sets 12:42:58 0° 129° (SE) 2,724 ? 19.5°
